CW3782 Weather Reports


time (UTC)temp
C
wind
direction
speed
KPH
gust
KPH
rain 1hr
cm
rain 24hr
cm
rain mn
cm
humidity
%
barometer
mb
20260508064648 11 95 0.0 3.2 0.00 0.00 0.00 99 1013.5
20260508064204 11 144 0.0 0.0 0.00 0.28 0.00 94 1011.8
20260508064146 11 142 0.0 1.6 0.00 0.00 0.00 99 1013.2
20260508063704 12 144 0.0 0.0 0.00 0.28 0.00 94 1011.8
20260508063643 11 117 0.0 3.2 0.00 0.00 0.00 99 1013.2
20260508063141 11 297 0.0 1.6 0.00 0.00 0.00 99 1013.2
20260508062704 12 144 0.0 0.0 0.00 0.30 0.00 94 1011.7
20260508062638 11 89 0.0 3.2 0.00 0.00 0.00 99 1013.3
20260508062204 12 144 0.0 0.0 0.00 0.30 0.00 94 1011.7
20260508062135 11 50 0.0 1.6 0.00 0.00 0.00 99 1013.5
20260508061704 12 144 0.0 0.0 0.00 0.30 0.00 94 1011.7
20260508061632 11 97 0.0 1.6 0.00 0.00 0.00 99 1013.0
20260508061130 11 67 0.0 1.6 0.00 0.00 0.00 99 1013.3
20260508060626 11 77 0.0 1.6 0.00 0.00 0.00 99 1013.3
20260508060204 12 144 0.0 0.0 0.00 0.33 0.00 94 1011.7
20260508060124 11 113 0.0 1.6 0.00 0.00 0.00 99 1013.1
20260508055619 11 107 0.0 3.2 0.00 0.00 0.00 99 1013.1
20260508055116 11 325 0.0 1.6 0.00 0.00 0.00 99 1013.1
20260508054613 12 194 0.0 1.6 0.00 0.00 0.00 99 1012.9
20260508054204 12 144 0.0 0.0 0.00 0.41 0.00 94 1011.6
20260508054110 12 36 1.6 3.2 0.00 0.00 0.00 99 1013.1
20260508053704 12 144 0.0 0.0 0.00 0.41 0.00 94 1011.7
20260508053607 12 103 0.0 1.6 0.00 0.00 0.00 99 1013.0
20260508053204 12 144 0.0 0.0 0.00 0.43 0.00 94 1011.7
20260508053105 12 14 0.0 3.2 0.00 0.00 0.00 99 1013.1
20260508052602 12 322 0.0 3.2 0.00 0.00 0.00 99 1013.1
20260508052059 12 279 0.0 3.2 0.00 0.00 0.00 99 1013.3
20260508051704 12 144 0.0 0.0 0.00 0.53 0.00 94 1011.7
20260508051555 12 89 0.0 0.0 0.00 0.00 0.00 99 1013.1
20260508051050 12 49 0.0 1.6 0.00 0.00 0.00 99 1013.1
20260508050704 12 144 0.0 0.0 0.00 0.61 0.00 94 1011.6
20260508050547 12 79 0.0 3.2 0.00 0.00 0.00 99 1012.9
20260508050044 12 42 0.0 3.2 0.00 0.00 0.00 99 1013.1
20260508045704 12 144 0.0 0.0 0.00 0.71 0.69 94 1011.7
20260508045540 12 306 0.0 1.6 0.00 0.00 0.00 99 1013.0
20260508045038 12 50 0.0 3.2 0.00 0.00 0.00 99 1013.0
20260508044535 12 53 0.0 1.6 0.00 0.00 0.00 99 1012.9
20260508044031 12 309 0.0 0.0 0.00 0.00 0.00 99 1013.0
20260508043528 12 25 0.0 3.2 0.00 0.00 0.00 99 1013.0
20260508043204 12 144 0.0 0.0 0.00 1.02 0.69 94 1011.5
20260508043026 12 69 0.0 3.2 0.00 0.00 0.00 99 1012.9
20260508042522 12 55 0.0 1.6 0.00 0.00 0.00 99 1013.1
20260508042205 12 144 0.0 0.0 0.00 1.12 0.69 94 1011.6
20260508042019 12 119 0.0 3.2 0.00 0.00 0.00 99 1013.0
20260508041516 12 29 0.0 3.2 0.00 0.00 0.00 99 1013.1
20260508041012 12 315 0.0 1.6 0.00 0.00 0.00 99 1012.7
20260508040704 12 144 0.0 0.0 0.00 1.12 0.69 94 1011.6
20260508040509 12 11 0.0 3.2 0.00 0.00 0.00 99 1012.8
20260508040203 12 144 0.0 0.0 0.00 1.12 0.69 94 1011.5
20260508040007 12 42 1.6 3.2 0.00 0.00 0.00 99 1012.7
20260508035704 12 144 0.0 0.0 0.00 1.12 0.69 94 1011.4
20260508035504 12 297 0.0 0.0 0.00 0.00 0.00 99 1012.9
20260508035000 12 269 0.0 1.6 0.00 0.00 0.00 99 1012.8
20260508034458 12 339 0.0 1.6 0.00 0.00 0.00 99 1012.9
20260508034205 12 144 0.0 0.0 0.00 1.12 0.69 94 1011.1
20260508033954 12 322 0.0 1.6 0.00 0.00 0.00 99 1012.6
20260508033452 12 335 1.6 3.2 0.00 0.00 0.00 99 1012.5
20260508032950 12 230 0.0 1.6 0.00 0.00 0.00 99 1012.4
20260508032705 12 144 0.0 0.0 0.00 1.14 0.69 94 1010.8
20260508032447 12 62 0.0 1.6 0.00 0.00 0.00 99 1012.2
20260508031944 12 29 0.0 1.6 0.00 0.00 0.00 99 1012.1
20260508031441 12 322 0.0 3.2 0.00 0.00 0.00 99 1012.2
20260508030937 12 89 0.0 3.2 0.00 0.00 0.00 99 1012.1
20260508030434 12 333 0.0 3.2 0.00 0.00 0.00 99 1012.3
20260508025931 12 309 0.0 1.6 0.00 0.00 0.00 99 1012.3
20260508025705 12 173 0.0 1.6 0.00 1.14 0.69 94 1010.8
20260508025427 12 89 0.0 1.6 0.00 0.00 0.00 99 1012.2
20260508024924 12 60 0.0 1.6 0.00 0.00 0.00 99 1012.1
20260508024421 12 89 0.0 0.0 0.00 0.00 0.00 99 1012.1
20260508024206 12 173 0.0 0.0 0.03 1.14 0.69 94 1010.6
20260508023918 12 74 0.0 1.6 0.00 0.00 0.00 99 1011.9
20260508023706 12 173 0.0 0.0 0.03 1.14 0.69 94 1010.6
20260508023415 12 89 0.0 0.0 0.00 0.00 0.00 99 1012.1
20260508023206 12 173 0.0 0.0 0.03 1.14 0.69 94 1010.5
20260508022912 12 89 0.0 1.6 0.00 0.00 0.00 99 1011.9
20260508022705 12 173 0.0 0.0 0.03 1.14 0.69 94 1010.5
20260508022407 12 77 0.0 1.6 0.00 0.00 0.00 99 1011.9
20260508021904 12 37 0.0 1.6 0.00 0.00 0.00 99 1011.8
20260508021705 12 173 0.0 1.6 0.03 1.14 0.69 94 1010.5
20260508021400 12 130 0.0 1.6 0.00 0.00 0.00 99 1011.8
20260508021205 12 173 0.0 1.6 0.03 1.14 0.69 94 1010.4
20260508020856 12 19 0.0 3.2 0.00 0.00 0.00 99 1011.8
20260508020354 12 29 0.0 3.2 0.00 0.00 0.00 99 1011.5
20260508020206 12 173 0.0 0.0 0.03 1.14 0.69 94 1010.0
20260508015852 12 48 0.0 1.6 0.00 0.00 0.00 99 1011.6
20260508015706 12 173 0.0 1.6 0.03 1.14 0.69 94 1010.1
20260508015349 12 81 0.0 3.2 0.00 0.00 0.00 99 1011.6
20260508014845 12 22 0.0 1.6 0.00 0.00 0.00 99 1011.5
20260508014705 12 173 0.0 1.6 0.00 1.12 0.66 94 1010.3
20260508014343 12 333 0.0 0.0 0.00 0.00 0.00 99 1011.5
20260508014205 12 173 0.0 0.0 0.00 1.12 0.66 94 1010.1
20260508013838 12 333 0.0 1.6 0.00 0.00 0.00 99 1011.6
20260508013334 12 306 0.0 1.6 0.00 0.00 0.00 99 1011.5
20260508012832 12 62 0.0 1.6 0.00 0.00 0.00 99 1011.2
20260508012329 12 44 0.0 1.6 0.00 0.00 0.00 99 1011.0
20260508011827 12 103 0.0 3.2 0.00 0.00 0.00 99 1010.9
20260508011706 12 173 0.0 1.6 0.00 1.12 0.66 93 1009.5
20260508011324 12 284 0.0 1.6 0.00 0.00 0.00 99 1010.8
20260508011205 12 173 0.0 1.6 0.00 1.12 0.66 93 1009.5
20260508010821 12 69 0.0 3.2 0.00 0.00 0.00 99 1010.8
20260508010319 12 37 0.0 3.2 0.00 0.00 0.00 99 1010.7
20260508005815 12 44 0.0 1.6 0.00 0.00 0.00 99 1010.7
20260508005312 12 62 0.0 1.6 0.00 0.00 0.00 99 1010.6
20260508005206 12 173 0.0 0.0 0.00 1.12 0.66 93 1009.4
20260508004809 12 37 0.0 3.2 0.00 0.00 0.00 99 1010.9
20260508004706 12 173 0.0 3.2 0.00 1.12 0.66 93 1009.4
20260508004304 12 115 0.0 1.6 0.00 0.00 0.00 99 1010.7
20260508004205 12 65 0.0 0.0 0.00 1.12 0.66 93 1009.5
20260508003755 12 315 0.0 1.6 0.00 0.00 0.00 99 1011.0
20260508003253 12 80 0.0 1.6 0.00 0.00 0.00 99 1010.9
20260508002749 12 142 0.0 3.2 0.00 0.00 0.00 99 1010.4
20260508002247 12 58 1.6 3.2 0.00 0.00 0.00 98 1010.7
20260508001742 12 89 0.0 1.6 0.00 0.00 0.00 98 1011.1
20260508001238 12 5 0.0 3.2 0.00 0.00 0.00 98 1010.8
20260508000734 12 343 0.0 3.2 0.00 0.00 0.00 98 1010.7
20260508000234 12 140 1.6 1.6 0.00 0.00 0.00 97 1010.4
20260508000206 12 24 1.6 3.2 0.00 1.12 0.66 93 1008.9
20260507235728 12 277 1.6 1.6 0.00 0.00 0.00 97 1009.8
20260507235705 12 174 0.0 1.6 0.00 1.12 0.66 93 1008.4
20260507235226 12 290 1.6 3.2 0.00 0.00 0.00 97 1009.8
20260507235205 12 157 0.0 1.6 0.00 1.12 0.66 93 1008.0
20260507234723 12 21 1.6 3.2 0.00 0.00 0.00 97 1009.4
20260507234705 12 140 0.0 1.6 0.00 1.12 0.66 93 1008.0
20260507234219 12 292 0.0 1.6 0.00 0.00 0.00 96 1009.4
20260507233715 12 293 0.0 1.6 0.00 0.00 0.00 97 1009.7
20260507233705 12 121 0.0 1.6 0.00 1.12 0.66 93 1008.1
20260507233214 12 129 0.0 3.2 0.00 0.00 0.00 97 1009.8
20260507233205 12 113 0.0 1.6 0.00 1.12 0.66 93 1008.3
20260507232710 12 274 0.0 3.2 0.00 0.00 0.00 97 1009.7
20260507232208 12 75 1.6 3.2 0.00 0.00 0.00 97 1009.7
20260507232205 12 100 0.0 1.6 0.00 1.12 0.66 93 1008.3
20260507231705 12 120 0.0 3.2 0.00 1.12 0.66 92 1008.4
20260507231206 13 123 1.6 3.2 0.00 1.12 0.66 93 1008.4
20260507231201 12 129 0.0 3.2 0.00 0.00 0.00 97 1009.7
20260507230705 13 161 0.0 3.2 0.00 1.12 0.66 93 1008.2
20260507230658 12 0 0.0 3.2 0.00 0.00 0.00 97 1009.7
20260507230155 12 75 0.0 3.2 0.00 0.00 0.00 97 1009.7
20260507225705 13 136 0.0 1.6 0.00 1.12 0.66 93 1007.9
20260507225654 12 50 1.6 8.0 0.00 0.00 0.00 97 1009.7
20260507225152 12 211 0.0 4.8 0.00 0.00 0.00 97 1009.5
20260507224706 13 118 0.0 3.2 0.00 1.12 0.66 93 1008.0
20260507224647 12 273 1.6 3.2 0.00 0.00 0.00 97 1009.7
20260507224206 13 119 0.0 1.6 0.00 1.12 0.66 93 1007.9
20260507224144 13 69 0.0 3.2 0.00 0.00 0.00 97 1009.5
20260507223705 13 144 0.0 1.6 0.00 1.12 0.66 93 1007.8
20260507223640 13 89 0.0 3.2 0.00 0.00 0.00 97 1009.5
20260507223137 13 104 1.6 3.2 0.00 0.00 0.00 97 1009.3
20260507222634 12 25 0.0 4.8 0.00 0.00 0.00 96 1009.2
20260507222205 13 99 0.0 1.6 0.00 1.12 0.66 92 1007.7
20260507222130 12 89 0.0 3.2 0.00 0.00 0.00 97 1009.4
20260507221627 12 291 1.6 4.8 0.00 0.00 0.00 97 1009.1
20260507221205 13 143 0.0 1.6 0.00 1.12 0.66 92 1007.7
20260507221123 12 50 0.0 3.2 0.00 0.00 0.00 98 1009.3
20260507220706 12 186 0.0 3.2 0.00 1.12 0.66 92 1007.7
20260507220620 12 58 0.0 3.2 0.00 0.00 0.00 98 1009.1
20260507220118 12 25 0.0 4.8 0.00 0.00 0.00 98 1009.3
20260507215614 12 340 3.2 3.2 0.00 0.00 0.00 98 1009.3
20260507215206 13 132 0.0 3.2 0.00 1.12 0.66 91 1007.9
20260507215112 12 269 0.0 3.2 0.00 0.00 0.00 98 1009.7
20260507214609 12 34 1.6 4.8 0.00 0.00 0.00 99 1009.6
20260507214205 13 197 1.6 4.8 0.00 1.12 0.66 91 1007.8
20260507214105 12 60 1.6 1.6 0.00 0.00 0.00 99 1009.5
20260507213705 13 92 1.6 4.8 0.00 1.12 0.66 91 1007.8
20260507213601 12 97 0.0 4.8 0.00 0.00 0.00 99 1009.2
20260507213059 12 242 0.0 3.2 0.00 0.00 0.00 99 1009.2
20260507212554 12 129 0.0 4.8 0.00 0.00 0.00 99 1009.1
20260507212051 12 89 0.0 4.8 0.00 0.00 0.00 99 1009.3
20260507211548 12 342 0.0 8.0 0.00 0.00 0.00 99 1009.1
20260507211044 12 6 3.2 6.4 0.00 0.00 0.00 99 1008.9
20260507210542 13 154 0.0 6.4 0.00 0.00 0.00 99 1008.8
20260507210038 13 5 0.0 6.4 0.00 0.00 0.00 99 1008.9
20260507205535 13 310 1.6 3.2 0.00 0.00 0.00 99 1008.5
20260507205205 14 129 1.6 8.0 0.00 1.12 0.66 92 1007.1
20260507205031 13 306 0.0 4.8 0.00 0.00 0.00 99 1008.7
20260507204705 14 90 1.6 3.2 0.00 1.12 0.66 92 1006.9
20260507204527 13 53 3.2 4.8 0.00 0.00 0.00 99 1008.6
20260507204025 13 277 0.0 3.2 0.00 0.00 0.00 99 1008.5
20260507203523 13 40 1.6 11.3 0.00 0.00 0.00 99 1008.3
20260507203205 15 87 1.6 4.8 0.00 1.12 0.66 92 1006.9
20260507203020 13 58 0.0 4.8 0.00 0.00 0.00 99 1008.5
20260507202516 13 329 3.2 4.8 0.00 0.00 0.00 99 1008.2
20260507202012 13 25 0.0 4.8 0.00 0.00 0.00 99 1008.4
20260507201705 15 190 1.6 3.2 0.00 1.12 0.66 91 1006.8
20260507201508 13 101 3.2 4.8 0.00 0.00 0.00 99 1008.6
20260507201004 13 10 0.0 3.2 0.00 0.00 0.00 99 1008.4
20260507200706 15 113 0.0 3.2 0.00 1.12 0.66 91 1006.8
20260507200500 13 153 1.6 4.8 0.00 0.00 0.00 99 1008.4
20260507195955 13 334 3.2 4.8 0.00 0.00 0.00 99 1008.4
20260507195453 13 266 1.6 3.2 0.00 0.00 0.00 99 1008.6
20260507195205 15 90 1.6 4.8 0.03 1.12 0.66 90 1006.8
20260507194951 14 316 3.2 4.8 0.00 0.00 0.00 99 1008.3
20260507194447 14 89 0.0 3.2 0.00 0.00 0.00 99 1008.4
20260507193943 14 241 0.0 4.8 0.00 0.00 0.00 99 1008.4
20260507193440 14 311 3.2 4.8 0.00 0.00 0.00 99 1008.3
20260507192937 14 347 0.0 3.2 0.00 0.00 0.00 99 1008.3
20260507192704 16 93 1.6 4.8 0.03 1.14 0.66 89 1006.7
20260507192433 14 47 1.6 4.8 0.00 0.00 0.00 99 1008.1
20260507192204 16 116 3.2 4.8 0.03 1.17 0.66 88 1006.6
20260507191930 14 343 3.2 8.0 0.00 0.00 0.00 99 1008.4
20260507191705 16 98 3.2 8.0 0.03 1.17 0.66 88 1006.6
20260507191426 14 82 1.6 4.8 0.00 0.00 0.00 99 1008.5
20260507191205 17 99 3.2 4.8 0.03 1.19 0.66 87 1006.9
20260507190922 14 19 3.2 4.8 0.00 0.00 0.00 99 1008.7
20260507190421 15 309 4.8 4.8 0.00 0.00 0.00 99 1008.6
20260507190205 17 122 1.6 3.2 0.03 1.19 0.66 87 1006.7
20260507185920 15 318 0.0 4.8 0.00 0.00 0.00 99 1008.2
20260507185416 15 15 0.0 4.8 0.00 0.00 0.00 99 1008.0
20260507184913 15 318 1.6 6.4 0.00 0.00 0.00 99 1007.4
20260507184705 18 113 1.6 4.8 0.00 1.17 0.64 88 1005.6
20260507184411 15 35 1.6 3.2 0.00 0.00 0.00 99 1007.6
20260507184205 18 102 1.6 4.8 0.00 1.17 0.64 88 1006.1
20260507183908 16 322 4.8 4.8 0.00 0.00 0.00 99 1008.3
20260507183705 19 105 1.6 4.8 0.00 1.17 0.64 90 1006.2
20260507183405 16 32 3.2 4.8 0.00 0.00 0.00 99 1008.1
20260507183206 20 119 0.0 3.2 0.00 1.17 0.64 91 1006.2
20260507182903 16 333 6.4 8.0 0.00 0.00 0.00 99 1008.2
20260507182357 17 323 0.0 6.4 0.00 0.00 0.00 99 1008.1
20260507182205 20 97 1.6 3.2 0.00 1.17 0.64 93 1006.2
20260507181855 17 324 4.8 6.4 0.00 0.00 0.00 99 1007.5
20260507181705 21 83 0.0 4.8 0.00 1.17 0.64 94 1005.6
20260507181350 17 158 4.8 6.4 0.00 0.00 0.00 99 1007.1
20260507180847 18 80 1.6 6.4 0.00 0.00 0.00 99 1007.7
20260507180704 21 262 4.8 9.7 0.00 1.17 0.64 95 1005.7
20260507180344 20 323 3.2 4.8 0.00 0.00 0.00 99 1007.5
20260507175840 20 309 0.0 1.6 0.00 0.00 0.00 99 1007.4
20260507175705 21 18 0.0 3.2 0.00 1.17 0.64 95 1005.7
20260507175337 20 242 0.0 3.2 0.00 0.00 0.00 99 1007.8
20260507174834 20 333 0.0 4.8 0.00 0.00 0.00 99 1007.7
20260507174332 20 309 0.0 1.6 0.00 0.00 0.00 99 1008.0
20260507174205 20 65 1.6 3.2 0.00 1.17 0.64 95 1006.2
20260507173829 20 269 0.0 0.0 0.00 0.00 0.00 99 1008.1
20260507173705 20 331 1.6 3.2 0.00 1.17 0.64 95 1006.2
20260507173326 20 262 0.0 1.6 0.00 0.00 0.00 99 1007.8
20260507173205 20 47 1.6 3.2 0.00 1.17 0.64 95 1006.1
20260507172822 20 158 0.0 3.2 0.00 0.00 0.00 99 1007.6
20260507172319 20 287 1.6 3.2 0.00 0.00 0.00 99 1007.5
20260507171815 20 302 1.6 1.6 0.00 0.00 0.00 99 1007.4
20260507171312 20 161 0.0 4.8 0.00 0.00 0.00 99 1007.1
20260507171205 20 171 1.6 4.8 0.00 1.17 0.64 96 1005.6
20260507170809 20 293 0.0 1.6 0.00 0.00 0.00 99 1007.2
20260507170704 20 128 0.0 4.8 0.00 1.17 0.64 95 1005.6
20260507170306 20 164 0.0 4.8 0.00 0.00 0.00 99 1007.3
20260507170205 20 111 0.0 4.8 0.00 1.17 0.64 96 1005.6
20260507165801 20 300 1.6 4.8 0.00 0.00 0.00 99 1007.4
20260507165258 20 157 0.0 3.2 0.00 0.00 0.00 99 1007.4
20260507165205 20 179 1.6 3.2 0.00 1.17 0.64 95 1005.8
20260507164754 20 117 0.0 3.2 0.00 0.00 0.00 99 1007.5
20260507164705 20 183 1.6 3.2 0.00 1.17 0.64 95 1006.0
20260507164251 20 315 0.0 1.6 0.00 0.00 0.00 99 1008.0
20260507164205 20 303 0.0 1.6 0.00 1.17 0.64 95 1006.2
20260507163748 20 217 0.0 1.6 0.00 0.00 0.00 99 1007.9
20260507163705 20 305 0.0 3.2 0.03 1.17 0.64 95 1006.2
20260507163246 20 336 0.0 3.2 0.00 0.00 0.00 99 1008.2
20260507163205 20 5 0.0 3.2 0.03 1.17 0.64 95 1006.6
20260507162742 20 242 0.0 3.2 0.00 0.00 0.00 99 1008.6
20260507162238 20 117 0.0 3.2 0.00 0.00 0.00 99 1008.5
20260507161735 20 252 0.0 4.8 0.00 0.00 0.00 99 1008.8
20260507161704 20 73 1.6 4.8 0.03 1.17 0.64 95 1007.1
20260507161231 20 233 0.0 6.4 0.00 0.00 0.00 99 1008.7
20260507160727 19 275 0.0 3.2 0.00 0.00 0.00 99 1009.0
20260507160705 20 345 0.0 3.2 0.03 1.17 0.64 95 1007.3
20260507160224 19 130 0.0 3.2 0.00 0.00 0.00 99 1008.9
20260507155720 19 297 0.0 3.2 0.00 0.00 0.00 99 1009.3
20260507155216 19 311 0.0 4.8 0.00 0.00 0.00 99 1008.9
20260507154713 20 294 0.0 1.6 0.00 0.00 0.00 99 1008.9
20260507154210 20 311 1.6 3.2 0.00 0.00 0.00 99 1008.8
20260507154205 20 71 1.6 3.2 0.03 1.17 0.64 95 1007.1
20260507153707 20 280 1.6 4.8 0.00 0.00 0.00 99 1008.5
20260507153705 20 47 1.6 1.6 0.00 1.14 0.61 95 1006.7
20260507153205 19 167 0.0 3.2 0.00 1.14 0.61 95 1006.5
20260507153203 20 104 0.0 3.2 0.00 0.00 0.00 99 1008.1
20260507152700 20 159 0.0 1.6 0.00 0.00 0.00 99 1008.6
20260507152156 19 286 0.0 1.6 0.00 0.00 0.00 99 1008.6
20260507151705 19 1 0.0 1.6 0.00 1.14 0.61 95 1007.0
20260507151652 19 257 0.0 3.2 0.00 0.00 0.00 99 1008.8
20260507151205 19 34 0.0 3.2 0.00 1.14 0.61 95 1006.6
20260507151149 19 325 0.0 3.2 0.00 0.00 0.00 99 1008.4
20260507150646 19 299 0.0 3.2 0.00 0.00 0.00 99 1008.3
20260507150143 19 116 0.0 3.2 0.00 0.00 0.00 99 1008.8
20260507145638 19 75 0.0 1.6 0.00 0.00 0.00 99 1008.8
20260507145136 19 247 0.0 6.4 0.00 0.00 0.00 99 1009.0
20260507144704 19 126 1.6 4.8 0.03 1.14 0.61 95 1007.3
20260507144632 19 164 0.0 3.2 0.00 0.00 0.00 99 1009.2
20260507144130 19 294 3.2 4.8 0.00 0.00 0.00 99 1009.2
20260507143705 19 340 1.6 4.8 0.03 1.14 0.61 94 1007.5
20260507143626 18 150 0.0 4.8 0.00 0.00 0.00 99 1009.1
20260507143124 18 44 1.6 4.8 0.00 0.00 0.00 99 1009.3
20260507142705 19 179 1.6 8.0 0.03 1.14 0.61 95 1007.5
20260507142619 19 296 3.2 4.8 0.00 0.00 0.00 99 1009.1
20260507142116 19 242 0.0 4.8 0.00 0.00 0.00 99 1009.2
20260507141612 19 104 0.0 4.8 0.00 0.00 0.00 99 1009.1
20260507141109 19 354 0.0 6.4 0.00 0.00 0.00 99 1009.4
20260507140704 19 113 0.0 4.8 0.03 1.14 0.61 95 1007.7
20260507140606 19 119 0.0 3.2 0.00 0.00 0.00 99 1009.5
20260507140204 20 25 1.6 4.8 0.03 1.14 0.61 95 1007.7
20260507140103 19 296 1.6 3.2 0.00 0.00 0.00 99 1009.7
20260507135704 20 62 0.0 1.6 0.00 1.12 0.58 95 1007.7
20260507135600 19 103 0.0 3.2 0.00 0.00 0.00 99 1009.5
20260507135205 19 54 1.6 3.2 0.00 1.12 0.58 95 1007.7
20260507135057 19 326 0.0 1.6 0.00 0.00 0.00 99 1009.5
20260507134704 20 5 0.0 3.2 0.00 1.12 0.58 95 1007.7
20260507134553 19 89 0.0 1.6 0.00 0.00 0.00 99 1009.4
20260507134205 20 359 0.0 1.6 0.00 1.12 0.58 95 1007.7
20260507134050 19 301 0.0 1.6 0.00 0.00 0.00 99 1009.6
20260507133705 19 96 0.0 4.8 0.00 1.12 0.58 95 1007.7
20260507133546 19 278 0.0 4.8 0.00 0.00 0.00 99 1009.4
20260507133206 19 6 0.0 8.0 0.00 1.12 0.58 95 1007.7
20260507133044 19 66 0.0 0.0 0.00 0.00 0.00 99 1009.5
20260507132540 19 269 0.0 3.2 0.00 0.00 0.00 99 1009.4
20260507132037 19 290 0.0 1.6 0.00 0.00 0.00 99 1009.3
20260507131704 19 29 0.0 1.6 0.00 1.12 0.58 95 1007.7
20260507131533 19 15 0.0 0.0 0.00 0.00 0.00 99 1009.4
20260507131031 19 15 0.0 1.6 0.00 0.00 0.00 99 1009.6
20260507130528 19 333 0.0 1.6 0.00 0.00 0.00 99 1009.2
20260507130205 19 125 0.0 1.6 0.00 1.12 0.58 95 1007.6
20260507130026 19 5 0.0 1.6 0.00 0.00 0.00 99 1009.2
20260507125705 19 122 0.0 1.6 0.00 1.12 0.58 95 1007.5
20260507125524 19 62 0.0 1.6 0.00 0.00 0.00 99 1009.2
20260507125205 19 177 0.0 1.6 0.00 1.12 0.58 94 1007.6
20260507125021 19 299 0.0 3.2 0.00 0.00 0.00 99 1009.3
20260507124705 19 244 0.0 8.0 0.00 1.12 0.58 94 1007.6
20260507124517 19 316 3.2 3.2 0.00 0.00 0.00 99 1009.4
20260507124204 19 197 1.6 4.8 0.00 1.12 0.58 94 1007.6
20260507124016 18 240 0.0 3.2 0.00 0.00 0.00 99 1009.3
20260507123513 18 154 0.0 3.2 0.00 0.00 0.00 99 1009.1
20260507123204 19 154 1.6 4.8 0.00 1.12 0.58 94 1007.6
20260507123010 18 295 1.6 3.2 0.00 0.00 0.00 99 1009.3
20260507122505 18 205 0.0 3.2 0.00 0.00 0.00 99 1009.4
20260507122001 18 269 0.0 3.2 0.00 0.00 0.00 99 1009.3
20260507121704 19 193 0.0 3.2 0.00 1.12 0.58 94 1007.7
20260507121456 18 157 0.0 1.6 0.00 0.00 0.00 99 1009.6
20260507120953 18 147 0.0 1.6 0.00 0.00 0.00 99 1009.5
20260507120704 18 178 1.6 3.2 0.00 1.12 0.58 94 1007.7
20260507120449 18 146 0.0 8.0 0.00 0.00 0.00 99 1009.4
20260507115946 18 117 0.0 3.2 0.00 0.00 0.00 99 1009.7
20260507115442 18 269 0.0 3.2 0.00 0.00 0.00 99 1009.8
20260507114938 18 124 0.0 1.6 0.00 0.00 0.00 99 1009.9
20260507114704 18 176 0.0 1.6 0.03 1.12 0.58 94 1008.2
20260507114434 18 147 0.0 3.2 0.00 0.00 0.00 99 1009.7
20260507113932 18 297 0.0 3.2 0.00 0.00 0.00 99 1010.0
20260507113705 18 77 1.6 4.8 0.03 1.12 0.58 94 1008.2
20260507113429 18 164 0.0 3.2 0.00 0.00 0.00 99 1009.9
20260507113205 18 145 0.0 4.8 0.03 1.12 0.58 94 1008.3
20260507112926 18 129 0.0 1.6 0.00 0.00 0.00 99 1010.1
20260507112424 18 104 0.0 1.6 0.00 0.00 0.00 99 1009.8
20260507112205 18 156 0.0 1.6 0.03 1.12 0.58 94 1008.2
20260507111921 18 322 0.0 1.6 0.00 0.00 0.00 99 1009.9
20260507111418 18 126 1.6 3.2 0.00 0.00 0.00 99 1009.9
20260507111204 18 156 0.0 1.6 0.03 1.12 0.58 94 1008.3
20260507110914 18 237 1.6 1.6 0.00 0.00 0.00 99 1010.0
20260507110410 18 224 0.0 3.2 0.00 0.00 0.00 99 1010.1
20260507105907 18 142 0.0 3.2 0.00 0.00 0.00 99 1010.0
20260507105404 18 224 0.0 1.6 0.00 0.00 0.00 99 1009.9
20260507105205 18 93 0.0 1.6 0.00 1.09 0.56 94 1008.2
20260507104901 18 110 0.0 3.2 0.00 0.00 0.00 99 1009.9
20260507104357 18 69 0.0 1.6 0.00 0.00 0.00 99 1009.6
20260507104204 18 170 0.0 3.2 0.00 1.09 0.56 93 1007.9
20260507103853 18 187 0.0 3.2 0.00 0.00 0.00 99 1009.7
20260507103705 18 184 0.0 0.0 0.00 1.09 0.56 94 1008.1
20260507103350 18 150 0.0 3.2 0.00 0.00 0.00 99 1009.8
20260507102846 18 113 0.0 1.6 0.00 0.00 0.00 99 1009.7
20260507102343 18 269 0.0 1.6 0.00 0.00 0.00 99 1009.7
20260507102205 18 184 0.0 1.6 0.03 1.09 0.56 94 1007.9
20260507101839 18 60 0.0 3.2 0.00 0.00 0.00 99 1009.6
20260507101705 18 116 0.0 1.6 0.03 1.09 0.56 93 1007.8
20260507101334 18 140 0.0 4.8 0.00 0.00 0.00 99 1009.6
20260507101205 18 97 0.0 1.6 0.03 1.09 0.56 94 1007.9
20260507100831 18 161 3.2 3.2 0.00 0.00 0.00 99 1009.7
20260507100705 18 28 0.0 1.6 0.03 1.09 0.56 93 1008.2
20260507100329 18 140 1.6 3.2 0.00 0.00 0.00 99 1009.9
20260507100205 18 28 0.0 1.6 0.03 1.09 0.56 93 1008.2
20260507095827 18 157 0.0 3.2 0.00 0.00 0.00 99 1009.8
20260507095323 18 333 0.0 3.2 0.00 0.00 0.00 99 1009.6
20260507094821 18 154 0.0 3.2 0.00 0.00 0.00 99 1009.3
20260507094317 18 326 0.0 4.8 0.00 0.00 0.00 99 1009.5
20260507094205 18 69 0.0 1.6 0.05 1.09 0.56 93 1008.0
20260507093814 18 78 1.6 3.2 0.00 0.00 0.00 99 1009.5
20260507093704 18 91 0.0 1.6 0.05 1.09 0.56 93 1007.8
20260507093312 18 136 0.0 3.2 0.00 0.00 0.00 99 1009.5
20260507093204 18 91 0.0 1.6 0.05 1.09 0.56 93 1007.9
20260507092810 18 116 0.0 3.2 0.00 0.00 0.00 99 1009.5
20260507092705 18 141 0.0 0.0 0.03 1.07 0.53 93 1007.8
20260507092307 18 219 0.0 1.6 0.00 0.00 0.00 99 1009.6
20260507091803 18 32 0.0 3.2 0.00 0.00 0.00 99 1009.2
20260507091705 18 141 0.0 1.6 0.03 1.07 0.53 93 1007.8
20260507091259 18 85 0.0 4.8 0.00 0.00 0.00 99 1009.5
20260507090759 18 161 1.6 3.2 0.00 0.00 0.00 99 1009.6
20260507090704 18 112 0.0 1.6 0.05 1.07 0.53 93 1008.0
20260507090256 18 62 0.0 1.6 0.00 0.00 0.00 99 1009.7
20260507085753 18 124 0.0 3.2 0.00 0.00 0.00 99 1009.6
20260507085704 18 111 0.0 1.6 0.05 1.07 0.53 93 1008.0
20260507085250 18 89 0.0 3.2 0.00 0.00 0.00 99 1009.7
20260507085204 18 137 0.0 3.2 0.05 1.07 0.53 93 1008.2
20260507084748 18 289 0.0 1.6 0.00 0.00 0.00 99 1009.9
20260507084244 18 162 0.0 1.6 0.00 0.00 0.00 99 1009.9
20260507084204 18 131 0.0 1.6 0.05 1.04 0.51 93 1008.3
20260507083741 18 304 0.0 0.0 0.00 0.00 0.00 99 1010.0
20260507083238 18 327 3.2 4.8 0.00 0.00 0.00 99 1010.4
20260507083204 18 43 1.6 9.7 0.05 1.04 0.51 93 1008.2
20260507082734 18 113 0.0 1.6 0.00 0.00 0.00 99 1010.2
20260507082229 18 309 0.0 0.0 0.00 0.00 0.00 99 1010.5
20260507081727 18 319 1.6 3.2 0.00 0.00 0.00 99 1010.6
20260507081704 18 105 0.0 1.6 0.05 1.04 0.51 92 1008.8
20260507081223 18 11 0.0 3.2 0.00 0.00 0.00 99 1010.4
20260507081205 18 112 0.0 1.6 0.05 1.02 0.48 92 1008.7
20260507080720 18 317 0.0 1.6 0.00 0.00 0.00 99 1010.4
20260507080704 18 98 0.0 1.6 0.05 1.02 0.48 92 1008.6
20260507080216 18 62 0.0 1.6 0.00 0.00 0.00 99 1010.2
20260507080205 18 98 0.0 1.6 0.05 1.02 0.48 92 1008.6
20260507075711 18 255 0.0 4.8 0.00 0.00 0.00 99 1010.5
20260507075704 18 80 1.6 3.2 0.05 1.02 0.48 92 1008.5
20260507075208 18 317 1.6 3.2 0.00 0.00 0.00 99 1009.7
20260507074704 18 146 1.6 3.2 0.00 0.00 0.00 99 1010.1
20260507074204 18 133 0.0 0.0 0.05 0.99 0.46 91 1008.8
20260507073659 18 55 0.0 1.6 0.00 0.00 0.00 99 1010.6
20260507073155 18 348 1.6 3.2 0.00 0.00 0.00 99 1010.7
20260507072653 18 66 0.0 3.2 0.00 0.00 0.00 99 1010.6
20260507072150 18 0 0.0 3.2 0.00 0.00 0.00 99 1010.7
20260507071704 18 123 0.0 1.6 0.08 0.99 0.46 91 1008.7
20260507071648 18 89 0.0 3.2 0.00 0.00 0.00 99 1010.3
20260507071205 18 174 0.0 1.6 0.08 0.97 0.43 91 1008.9
20260507071144 18 142 0.0 4.8 0.00 0.00 0.00 99 1010.4
20260507070704 18 167 0.0 1.6 0.08 0.97 0.43 91 1009.2
20260507070641 18 190 0.0 3.2 0.00 0.00 0.00 99 1010.7
20260507070138 18 177 0.0 3.2 0.00 0.00 0.00 99 1010.8
20260507065704 18 167 0.0 0.0 0.10 0.97 0.43 91 1009.4
20260507065634 18 166 0.0 1.6 0.00 0.00 0.00 99 1011.0
20260507065131 18 193 0.0 1.6 0.00 0.00 0.00 99 1011.0